www.pogodaiklimat.ru

Погода и климат >> Архив погоды >> Россия >> Якутия >> Крест-Хальджай


ПОГОДА в Крест-Хальджае

  • Прогноз погоды в Крест-Хальджае
  • Монитор погоды в Крест-Хальджае

АРХИВ ПОГОДЫ в Крест-Хальджае

Время (UTC), дата Ветер
(напр.,м/с)
 
Видим.   Явления Облачность Т
(С)
Тd
(С)
f
(%)
Тe
(С)
Тes
(С)
Комфортность P
(гПа)
Po
(гПа)
Тmin
(С)
Tmax
(С)
R
(мм)
R24
(мм)
S
(см)
21 19.03 З 1 50 км ясно -34.5 -36.2 84 -39 -39 опасность
обморожения
1023.8 1007.2 -34.5 33
00 20.03 штиль 0 50 км ясно -31.0 -33.4 79 -31 -28 опасность
обморожения
1024.3 1007.9
03 20.03 Ю 1 50 км ясно -20.1 -25.0 65 -23 -17 1023.7 1007.9
06 20.03 штиль 0 50 км ясно -13.0 -23.8 40 -13 -10 1023.2 1007.9
09 20.03 штиль 0 50 км ясно -12.2 -23.1 40 -12 -12 1023.3 1008.0 -12.2
12 20.03 штиль 0 50 км ясно -20.1 -26.8 55 -20 -20 1024.5 1008.7
15 20.03 штиль 0 50 км ясно -26.0 -29.1 75 -26 -26 1025.1 1008.9
18 20.03 штиль 0 50 км ясно -30.7 -33.0 80 -31 -31 опасность
обморожения
1025.3 1008.9
21 20.03 штиль 0 50 км ясно -34.0 -36.2 80 -34 -34 опасность
обморожения
1025.9 1009.2 -34.0 33
00 21.03 штиль 0 50 км ясно -29.5 -32.0 79 -30 -26 1026.0 1009.7
03 21.03 Ю 1 50 км ясно -19.0 -24.8 60 -22 -16 1024.8 1009.1
06 21.03 З 1 50 км ясно -12.4 -21.9 45 -15 -12 1023.9 1008.6
09 21.03 ЮЗ 1 50 км ясно -12.2 -23.1 40 -14 -14 1023.1 1007.8 -12.1
12 21.03 Ю 1 50 км ясно -19.6 -25.4 60 -23 -23 1023.9 1008.2
15 21.03 штиль 0 50 км ясно -26.6 -29.0 80 -27 -27 1024.1 1007.9
18 21.03 штиль 0 50 км ясно -28.3 -30.7 80 -28 -28 1023.3 1007.1
21 21.03 З 1 50 км ясно -32.5 -34.2 85 -37 -37 опасность
обморожения
1023.5 1006.9 -33.5 33
00 22.03 штиль 0 50 км ясно -28.0 -29.8 84 -28 -24 1022.7 1006.5
03 22.03 З 1 50 км ясно -15.8 -22.8 55 -18 -12 1020.4 1005.1
06 22.03 З 1 50 км ясно -12.3 -21.8 45 -15 -11 1019.1 1003.9
09 22.03 СВ 1 50 км ясно -12.7 -23.5 40 -15 -15 1018.3 1003.1 -12.2
12 22.03 СВ 1 50 км ясно -23.6 -29.3 59 -27 -27 1018.1 1002.3
15 22.03 штиль 0 50 км ясно -26.7 -29.9 74 -27 -27 1017.2 1001.2
18 22.03 штиль 0 50 км ясно -32.1 -33.7 86 -32 -32 опасность
обморожения
1016.5 1000.1
21 22.03 штиль 0 50 км ясно -35.1 -37.4 79 -35 -35 опасность
обморожения
1015.3 998.7 -35.1 33
00 23.03 Ю 1 50 км ясно -28.0 -30.5 79 -32 -29 опасность
обморожения
1013.4 997.4
03 23.03 СВ 2 50 км 3/0
[Ci fib]
-15.5 -22.5 55 -21 -16 1010.2 995.0
06 23.03 СВ 1 50 км 4/0
[Ci fib]
-10.2 -19.9 45 -12 -9 1007.5 992.6
09 23.03 СВ 2 50 км 8/0
[Ac trans Ci fib]
-12.0 -21.5 45 -17 -17 1006.3 991.3 -9.9
12 23.03 С 1 50 км 6/0
[Ac trans Ci fib]
-17.2 -24.1 55 -20 -20 1006.3 991.1
15 23.03 штиль 0 50 км 8/0
[Ac trans Ci fib]
-22.2 -25.5 74 -22 -22 1006.1 990.5
18 23.03 штиль 0 50 км 3/0
[Ci fib]
-27.2 -29.0 85 -27 -27 1006.2 990.3
21 23.03 ЮЗ 1 50 км ясно -21.5 -33.3 34 -25 -25 1006.6 990.5 -31.5 33
00 24.03 ЮЗ 1 50 км ясно -26.6 -28.4 85 -30 -27 1006.8 990.9
03 24.03 ЮЗ 1 50 км ясно -15.6 -22.6 55 -18 -12 1005.9 990.8
06 24.03 С 1 50 км ясно -7.7 -19.9 37 -10 -6 1005.5 990.8
09 24.03 СВ 1 50 км ясно -7.1 -21.2 31 -9 -9 1006.4 991.5 -7.1
12 24.03 штиль 0 50 км ясно -14.3 -23.7 45 -14 -14 1007.9 992.7
15 24.03 З 1 50 км ясно -20.5 -23.8 75 -24 -24 1009.4 993.8
18 24.03 штиль 0 50 км ясно -26.4 -27.6 90 -26 -26 1010.1 994.2
21 24.03 З 1 50 км ясно -30.0 -31.7 85 -34 -34 опасность
обморожения
1011.8 995.6 -30.0 33
00 25.03 ЮВ 1 50 км ясно -25.5 -28.0 79 -29 -26 1012.6 996.8
03 25.03 ЮЗ 1 50 км ясно -14.5 -22.7 50 -17 -10 1012.1 996.9
06 25.03 ЮЗ 1 50 км ясно -6.5 -19.8 34 -8 -5 1011.9 997.2
09 25.03 СЗ 3 50 км ясно -6.7 -20.2 33 -12 -12 1012.4 997.7 -6.0
12 25.03 З 3 50 км ясно -12.0 -21.5 45 -18 -18 1014.7 999.6 -5.7
15 25.03 ЮЗ 2 50 км ясно -18.0 -21.4 75 -23 -23 1015.2 999.7
18 25.03 Ю 2 50 км ясно -22.4 -23.6 90 -29 -29 1015.7 999.9
21 25.03 Ю 1 50 км ясно -23.3 -24.5 90 -27 -27 1015.9 1000.1 -23.3 33
00 26.03 ЮЗ 1 50 км ясно -20.0 -21.9 85 -23 -19 1016.1 1000.5
03 26.03 ЮЗ 1 50 км ясно -14.3 -16.3 85 -17 -10 1015.3 1000.0
06 26.03 ЮЗ 1 50 км ясно -9.9 -18.5 49 -12 -8 1013.4 998.6
09 26.03 З 1 50 км ясно -8.5 -19.9 39 -10 -10 1014.3 999.4 -8.4
12 26.03 ЮЗ 1 50 км ясно -15.5 -21.5 60 -18 -18 1014.9 999.6
15 26.03 ЮЗ 1 50 км ясно -18.3 -23.3 65 -21 -21 1013.6 998.1
18 26.03 З 1 50 км ясно -21.1 -23.0 85 -24 -24 1013.1 997.5

 

Местоположение метеостанции Крест-Хальджай (Якутия, Россия): широта 62.82 долгота 134.40 высота над уровнем моря 115 м.

В архиве по умолчанию представлена погода в Крест-Хальджае за последнюю неделю. Архивные данные за месяц целиком и за предыдущие месяцы, начиная с января 2011 года, Вы можете получить, выбрав интересующий диапазон дат из раскрывающегося списка и нажав кнопку "Ввод!".


*Определитесь, кто Вы:
робот инопланетянин человек

Внимание! Время в таблицах - всемирное. Для получения местного времени необходимо прибавить поправку, которая равна 9 ч.

Смотрите также архив погоды в соседних городах и на ближайших метеорологических станциях:

Погода в Ытык-Кюёле (Якутия, Россия) (68 км)
Погода в Охотском Перевозе (Якутия, Россия) (120 км)
Погода в Теплом Ключе (Якутия, Россия) (122 км)
Погода в Чурапче (Якутия, Россия) (128 км)
Погода в Верхоянском Перевозе (Якутия, Россия) (133 км)
Погода в Томпо (Якутия, Россия) (144 км)
Погода в Сеген-Кюеле (Якутия, Россия) (243 км)
Погода в Намцах (Якутия, Россия) (244 км)
Погода в Амге (Якутия, Россия) (251 км)
Погода в Батамае (Якутия, Россия) (263 км)

Пояснения к столбцам:

Ветер - указаны скорость ветра в м/с - средняя за 10 мин, порывы в срок и между сроками (в фигурных скобках) и направление, откуда дует ветер: С - северный, СВ - северо-восточный, В - восточный, ЮВ - юго-восточный, Ю - южный, ЮЗ - юго-западный, З - западный, СЗ - северо-западный.
Видимость - горизонтальная дальность видимости в метрах или километрах. При видимости от 1 до 10 км при отсутствии осадков обычно наблюдается дымка, при ухудшении видимости до 1 км и менее - туман. В сухую погоду видимость может ухудшаться дымом, пылью или мглою.
Явления - указаны атмосферные явления, наблюдавшиеся в срок или в последний час перед сроком; фигурными скобками обозначены явления, наблюдавшиеся между сроками (за 1-3 часа до срока); квадратными скобками обозначены град или гололедные отложения с указанием их диаметра в мм.
Облачность - указаны через наклонную черту общая и нижняя облачность в баллах и высота нижней границы облаков в метрах; квадратными скобками обозначены формы облаков: Ci - перистые, Cs - перисто-слоистые, Cc - перисто-кучевые, Ac - высококучевые, As - высокослоистые, Sc - слоисто-кучевые, Ns - слоисто-дождевые, Cu - кучевые, Cb - кучево-дождевые. Подробнее классификацию облаков см. в Атласе облаков (PDF).
T - Температура воздуха - температура, измеренная на высоте 2 м над землей.
Td - Температура точки росы - температура, при понижении до которой содержащийся в воздухе водяной пар достигнет насыщения.
f - Относительная влажность воздуха - влажноcть воздуха, измеренная на высоте 2 м над землей.
Te - Эффективная температура - температура, которую ощущает одетый по сезону человек в тени. Характеристика душности погоды. При расчете учитывается влияние влажности воздуха и скорости ветра на теплоощущения человека.
Tes - Эффективная температура на солнце - температура, которую ощущает человек, с поправкой на солнечный нагрев. Характеристика знойности погоды. Зависит от высоты солнца над горизонтом, облачности и скорости ветра. Ночью, в пасмурную погоду, а также при ветре 12 м/с и более поправка равна нулю.
P - Атмосферное давление - приведенное к уровню моря атмосферное давление.
Po - Атмосферное давление - измеренное на уровне метеостанции атмосферное давление.
Tmin - Минимальная температура - минимум температуры воздуха на высоте 2 м над землей.
Tmax - Максимальная температура - максимум температуры воздуха на высоте 2 м над землей.
R - Количество осадков - Количество выпавших осадков за период времени, мм. При наведении курсора мыши на число - период времени, за который выпало указанное количество осадков.
R24 - Количество осадков - Количество выпавших осадков за 24 часа, мм.
S - Снежный покров - Высота снежного покрова, см. При наведении курсора мыши на число - состояние снежного покрова и степень покрытия местности в баллах.